TimeEDT,TemperatureF,Dew PointF,Humidity,Sea Level PressureIn,VisibilityMPH,Wind Direction,Wind SpeedMPH,Gust SpeedMPH,PrecipitationIn,Events,Conditions,WindDirDegrees,DateUTC
12:15 AM,53.6,39.2,58,29.77,10.0,WNW,23.0,32.2,N/A,,Clear,300,2014-03-13 04:15:00
12:35 AM,51.8,37.4,58,29.78,10.0,WNW,16.1,32.2,N/A,,Clear,300,2014-03-13 04:35:00
12:55 AM,51.8,35.6,54,29.79,7.0,NW,17.3,28.8,N/A,,Clear,310,2014-03-13 04:55:00
1:15 AM,50.0,33.8,54,29.80,10.0,NW,24.2,34.5,N/A,,Clear,310,2014-03-13 05:15:00
1:35 AM,50.0,33.8,54,29.81,7.0,WNW,12.7,31.1,N/A,,Clear,300,2014-03-13 05:35:00
1:55 AM,50.0,33.8,54,29.82,7.0,WNW,25.3,36.8,N/A,,Clear,300,2014-03-13 05:55:00
2:15 AM,50.0,32.0,50,29.83,7.0,WNW,16.1,25.3,N/A,,Clear,290,2014-03-13 06:15:00
2:35 AM,48.2,32.0,54,29.83,7.0,WNW,17.3,25.3,N/A,,Clear,300,2014-03-13 06:35:00
2:55 AM,48.2,32.0,54,29.84,5.0,West,18.4,24.2,N/A,,Haze,280,2014-03-13 06:55:00
3:15 AM,46.4,32.0,57,29.85,7.0,WNW,18.4,28.8,N/A,,Clear,290,2014-03-13 07:15:00
3:35 AM,46.4,32.0,57,29.85,7.0,WNW,17.3,31.1,N/A,,Clear,290,2014-03-13 07:35:00
3:55 AM,46.4,30.2,53,29.86,7.0,WNW,20.7,33.4,N/A,,Clear,300,2014-03-13 07:55:00
4:15 AM,44.6,28.4,53,29.86,10.0,WNW,20.7,28.8,N/A,,Clear,300,2014-03-13 08:15:00
4:35 AM,44.6,28.4,53,29.87,10.0,WNW,16.1,32.2,N/A,,Clear,300,2014-03-13 08:35:00
4:55 AM,44.6,28.4,53,29.88,10.0,WNW,15.0,18.4,N/A,,Clear,290,2014-03-13 08:55:00
5:15 AM,44.6,28.4,53,29.90,10.0,WNW,19.6,27.6,N/A,,Clear,300,2014-03-13 09:15:00
5:35 AM,44.6,28.4,53,29.91,10.0,WNW,20.7,24.2,N/A,,Clear,300,2014-03-13 09:35:00
5:55 AM,44.6,28.4,53,29.93,10.0,WNW,12.7,26.5,N/A,,Clear,300,2014-03-13 09:55:00
6:15 AM,44.6,26.6,49,29.94,7.0,WNW,17.3,23.0,N/A,,Clear,300,2014-03-13 10:15:00
6:35 AM,42.8,26.6,53,29.95,10.0,WNW,17.3,23.0,N/A,,Clear,300,2014-03-13 10:35:00
6:55 AM,42.8,26.6,53,29.97,10.0,WNW,16.1,21.9,0.01,,Clear,290,2014-03-13 10:55:00
7:15 AM,42.8,26.6,53,29.98,10.0,WNW,11.5,18.4,N/A,,Clear,290,2014-03-13 11:15:00
7:35 AM,42.8,26.6,53,29.99,10.0,WNW,15.0,24.2,N/A,,Clear,300,2014-03-13 11:35:00
7:55 AM,42.8,24.8,49,30.01,10.0,WNW,12.7,25.3,N/A,,Clear,300,2014-03-13 11:55:00
8:35 AM,42.8,26.6,53,30.03,10.0,WNW,11.5,24.2,N/A,,Clear,300,2014-03-13 12:35:00
8:55 AM,42.8,24.8,49,30.04,10.0,NW,12.7,23.0,N/A,,Clear,310,2014-03-13 12:55:00
9:15 AM,44.6,26.6,49,30.05,10.0,WNW,17.3,23.0,N/A,,Clear,290,2014-03-13 13:15:00
9:35 AM,44.6,24.8,46,30.06,10.0,NW,19.6,28.8,N/A,,Clear,310,2014-03-13 13:35:00
9:55 AM,44.6,26.6,49,30.05,10.0,WNW,17.3,24.2,N/A,,Clear,300,2014-03-13 13:55:00
10:15 AM,46.4,26.6,46,30.06,10.0,NW,12.7,25.3,N/A,,Clear,310,2014-03-13 14:15:00
10:35 AM,46.4,26.6,46,30.07,10.0,NW,16.1,24.2,N/A,,Clear,320,2014-03-13 14:35:00
10:55 AM,46.4,26.6,46,30.07,7.0,NW,18.4,25.3,N/A,,Clear,310,2014-03-13 14:55:00
11:15 AM,48.2,26.6,43,30.08,7.0,NW,18.4,24.2,N/A,,Clear,310,2014-03-13 15:15:00
11:35 AM,48.2,26.6,43,30.07,10.0,WNW,10.4,21.9,N/A,,Clear,290,2014-03-13 15:35:00
11:55 AM,50.0,26.6,40,30.07,7.0,NW,13.8,21.9,N/A,,Clear,320,2014-03-13 15:55:00
12:15 PM,51.8,26.6,38,30.08,7.0,NW,10.4,24.2,N/A,,Clear,310,2014-03-13 16:15:00
12:35 PM,51.8,26.6,38,30.08,10.0,NW,15.0,20.7,N/A,,Clear,310,2014-03-13 16:35:00
12:55 PM,51.8,26.6,38,30.07,7.0,NW,10.4,16.1,N/A,,Clear,320,2014-03-13 16:55:00
1:35 PM,53.6,26.6,35,30.08,10.0,NNW,9.2,24.2,N/A,,Clear,330,2014-03-13 17:35:00
1:55 PM,53.6,26.6,35,30.08,10.0,NW,12.7,20.7,N/A,,Clear,310,2014-03-13 17:55:00
2:15 PM,53.6,26.6,35,30.07,10.0,NW,16.1,20.7,N/A,,Clear,320,2014-03-13 18:15:00
2:35 PM,55.4,26.6,33,30.07,10.0,WNW,11.5,21.9,N/A,,Clear,300,2014-03-13 18:35:00
2:55 PM,55.4,26.6,33,30.07,10.0,WNW,15.0,24.2,N/A,,Clear,290,2014-03-13 18:55:00
3:15 PM,55.4,26.6,33,30.07,10.0,NW,17.3,24.2,N/A,,Clear,310,2014-03-13 19:15:00
3:35 PM,55.4,26.6,33,30.08,10.0,NW,15.0,20.7,N/A,,Clear,310,2014-03-13 19:35:00
3:55 PM,55.4,26.6,33,30.08,10.0,NNW,16.1,23.0,N/A,,Clear,330,2014-03-13 19:55:00
4:15 PM,55.4,26.6,33,30.08,10.0,NW,13.8,20.7,N/A,,Clear,310,2014-03-13 20:15:00
4:35 PM,55.4,26.6,33,30.09,10.0,NNW,12.7,21.9,N/A,,Clear,330,2014-03-13 20:35:00
4:55 PM,55.4,26.6,33,30.09,10.0,NW,12.7,18.4,N/A,,Clear,310,2014-03-13 20:55:00
5:15 PM,57.2,26.6,31,30.09,10.0,NW,11.5,17.3,N/A,,Clear,310,2014-03-13 21:15:00
5:55 PM,55.4,26.6,33,30.11,10.0,NW,13.8,-,N/A,,Clear,320,2014-03-13 21:55:00
6:15 PM,55.4,26.6,33,30.12,10.0,NW,10.4,-,N/A,,Clear,320,2014-03-13 22:15:00
6:35 PM,55.4,26.6,33,30.13,10.0,NW,9.2,-,N/A,,Clear,310,2014-03-13 22:35:00
6:55 PM,53.6,26.6,35,30.14,10.0,NW,10.4,17.3,N/A,,Clear,320,2014-03-13 22:55:00
7:15 PM,53.6,26.6,35,30.15,10.0,NW,6.9,-,N/A,,Clear,310,2014-03-13 23:15:00
7:35 PM,53.6,28.4,38,30.16,10.0,NW,5.8,-,N/A,,Clear,310,2014-03-13 23:35:00
7:55 PM,51.8,30.2,44,30.17,10.0,NNW,4.6,-,N/A,,Clear,330,2014-03-13 23:55:00
8:15 PM,51.8,30.2,44,30.18,10.0,NW,6.9,-,N/A,,Clear,320,2014-03-14 00:15:00
8:35 PM,51.8,30.2,44,30.19,10.0,NW,3.5,-,N/A,,Clear,310,2014-03-14 00:35:00
8:55 PM,50.0,32.0,50,30.20,10.0,NW,3.5,-,N/A,,Clear,320,2014-03-14 00:55:00
9:15 PM,50.0,33.8,54,30.21,10.0,NW,5.8,-,N/A,,Clear,310,2014-03-14 01:15:00
9:35 PM,44.6,32.0,61,30.22,10.0,Calm,Calm,-,N/A,,Clear,0,2014-03-14 01:35:00
9:55 PM,42.8,32.0,66,30.24,10.0,Calm,Calm,-,N/A,,Clear,0,2014-03-14 01:55:00
10:15 PM,42.8,32.0,66,30.24,7.0,Calm,Calm,-,N/A,,Clear,0,2014-03-14 02:15:00
10:35 PM,42.8,32.0,66,30.25,10.0,Calm,Calm,-,N/A,,Clear,0,2014-03-14 02:35:00
10:55 PM,42.8,32.0,66,30.25,7.0,Calm,Calm,-,N/A,,Clear,0,2014-03-14 02:55:00
11:15 PM,41.0,32.0,70,30.25,7.0,Calm,Calm,-,N/A,,Clear,0,2014-03-14 03:15:00
11:35 PM,41.0,32.0,70,30.25,10.0,Calm,Calm,-,N/A,,Clear,0,2014-03-14 03:35:00